Pleasanton, CA

2:24 AM PST on February 21, 2017 (GMT -0800)
Livermore Municipal

Weather History for KLVK - October, 2013

Change the Weather History Date:

Friday, October 4, 2013

  Actual Average Record
Temperature  
Mean Temperature 69 °F 66 °F  
Max Temperature 81 °F 80 °F 106 °F (1980)
Min Temperature 56 °F 52 °F 40 °F (1973)
Degree Days  
Heating Degree Days 0 2  
Month to date heating degree days 3 5  
Since 1 July heating degree days 7 29  
Cooling Degree Days 4 3  
Month to date cooling degree days 6 12  
Year to date cooling degree days 1015 801  
Growing Degree Days 21 (Base 50)    
Moisture  
Dew Point 27 °F    
Average Humidity 23    
Maximum Humidity 32    
Minimum Humidity 14    
Precipitation  
Precipitation 0.00 in 0.02 in 0.20 in (2008)
Month to date precipitation 0.00 0.06  
Year to date precipitation 2.59 10.19  
Since 1 July precipitation 0.47  
Sea Level Pressure  
Sea Level Pressure 30.04 in    
Wind  
Wind Speed 9 mph (NNE)    
Max Wind Speed 22 mph    
Max Gust Speed 33 mph    
Visibility 10 miles    
Events      
T = Trace of Precipitation, MM = Missing Value Source: NWS Daily Summary

Daily Weather History Graph

Daily Weather History Graph

Search for Another Location

Airport or City:

Trip Planner

Search our weather history database for the weather conditions in past years. The results will help you decide how hot, cold, wet, or windy it might be!

Date:

Astronomy

Oct. 04, 2013 Rise Set
Actual Time 7:05 AM PDT 6:45 PM PDT
Civil Twilight 6:39 AM PDT 7:11 PM PDT
Nautical Twilight 6:09 AM PDT 7:41 PM PDT
Astronomical Twilight 5:38 AM PDT 8:12 PM PDT
Moon 6:46 AM PDT (10/4) 6:31 PM PDT (10/4)
Length of Visible Light 12h 31m
Length of Day
11h 39m
Waning Crescent, 0% of the Moon is Illuminated
Oct 4
Waning Crescent
Oct 4
New
Oct 11
First Quarter
Oct 18
Full
Oct 26
Last Quarter

Hourly Weather History & Observations

Time (PDT) Temp. Dew Point Humidity Pressure Visibility Wind Dir Wind Speed Gust Speed Precip Events Conditions
12:53 AM 69.1 °F 23.0 °F 18% 29.98 in 10.0 mi North 11.5 mph 26.5 mph N/A   Clear
1:53 AM 68.0 °F 24.1 °F 19% 29.99 in 10.0 mi North 16.1 mph 21.9 mph N/A   Clear
2:53 AM 66.0 °F 25.0 °F 21% 29.98 in 10.0 mi NNW 12.7 mph 19.6 mph N/A   Clear
3:53 AM 66.0 °F 25.0 °F 21% 29.98 in 10.0 mi North 19.6 mph 26.5 mph N/A   Clear
4:53 AM 64.9 °F 25.0 °F 22% 29.97 in 10.0 mi Variable 5.8 mph 16.1 mph N/A   Clear
5:53 AM 64.0 °F 25.0 °F 23% 29.99 in 10.0 mi North 8.1 mph 24.2 mph N/A   Clear
6:53 AM 64.0 °F 25.0 °F 23% 30.01 in 10.0 mi North 12.7 mph 28.8 mph N/A   Clear
7:53 AM 64.9 °F 26.1 °F 23% 30.03 in 10.0 mi Variable 5.8 mph 19.6 mph N/A   Clear
8:53 AM 66.0 °F 26.1 °F 22% 30.06 in 10.0 mi Variable 4.6 mph - N/A   Clear
9:53 AM 69.1 °F 27.0 °F 21% 30.08 in 10.0 mi NE 10.4 mph 24.2 mph N/A   Clear
10:53 AM 72.0 °F 27.0 °F 19% 30.09 in 10.0 mi NNE 10.4 mph 16.1 mph N/A   Clear
11:53 AM 73.9 °F 28.0 °F 18% 30.08 in 10.0 mi NNE 15.0 mph 23.0 mph N/A   Clear
12:53 PM 77.0 °F 28.9 °F 17% 30.07 in 10.0 mi NE 15.0 mph 24.2 mph N/A   Clear
1:53 PM 78.1 °F 26.1 °F 15% 30.06 in 10.0 mi NE 18.4 mph 24.2 mph N/A   Clear
2:53 PM 80.1 °F 27.0 °F 14% 30.04 in 10.0 mi NE 15.0 mph 20.7 mph N/A   Clear
3:53 PM 80.1 °F 26.1 °F 14% 30.03 in 10.0 mi NE 15.0 mph - N/A   Clear
4:53 PM 80.1 °F 27.0 °F 14% 30.03 in 10.0 mi NE 13.8 mph 20.7 mph N/A   Clear
5:53 PM 79.0 °F 27.0 °F 15% 30.04 in 10.0 mi NE 11.5 mph - N/A   Clear
6:53 PM 75.0 °F 28.0 °F 18% 30.05 in 10.0 mi NE 4.6 mph - N/A   Clear
7:53 PM 68.0 °F 28.9 °F 23% 30.06 in 10.0 mi Calm Calm - N/A   Clear
8:53 PM 64.9 °F 30.9 °F 28% 30.08 in 10.0 mi Calm Calm - N/A   Clear
9:53 PM 64.9 °F 33.1 °F 31% 30.08 in 10.0 mi East 4.6 mph - N/A   Clear
10:53 PM 62.1 °F 32.0 °F 32% 30.09 in 10.0 mi Calm Calm - N/A   Clear
11:53 PM 61.0 °F 30.9 °F 32% 30.11 in 10.0 mi Calm Calm - N/A   Clear